Location: ?????
(31.8092°N, 35.2590°E)
Time: 04:05:48
(UTC+00:00)

Lacrosse 5 - Pass Details

Date: 27 October 2021
Orbit: 714 x 724 km, 57.0° (Epoch: 28 August)

Event Time Altitude Azimuth Distance (km) Brightness Sun altitude
Exits shadow 02:05:56 62° 278° (W) 803 1.7 -22.9°
Maximum altitude 02:06:31 69° 235° (SW) 765 1.7 -22.8°
Drops below altitude 10° 02:11:31 10° 152° (SSE) 2,186 4.7 -21.8°
Sets 02:13:53 0° 150° (SSE) 3,102 5.6 -21.3°
